METAR Formatted Surface Weather Observation
Issued by NWS

Home | Current Version | Previous Version | Text Only | Print | Product List | Glossary On
Versions: 1 2 3 4 5 6 7 8 9 10 11 12 13 14 15 16 17 18 19 20 21 22 23 24 25 26 27 28 29 30 31 32
000
SAUS44 KMAF 302354
MTRNFW
METAR KNFW 302352Z VRB03KT 10SM CLR 30/22 A2996 RMK AO2 TSB2257E2259
SLP128 60007 T03000222 10333 20272 58004 $



USA.gov is the U.S. government's official web portal to all federal, state and local government web resources and services.